Year,Month,Day,Hour,Minute,Value (Times are PST for temperature in C)
2017,09,28,00,00,12.50
2017,09,28,00,01,12.50
2017,09,28,00,02,12.50
2017,09,28,00,03,12.50
2017,09,28,00,04,12.50
2017,09,28,00,05,12.40
2017,09,28,00,06,12.40
2017,09,28,00,07,12.40
2017,09,28,00,08,12.40
2017,09,28,00,09,12.40
2017,09,28,00,10,12.40
2017,09,28,00,11,12.40
2017,09,28,00,12,12.40
2017,09,28,00,13,12.30
2017,09,28,00,14,12.30
2017,09,28,00,15,12.30
2017,09,28,00,16,12.30
2017,09,28,00,17,12.30
2017,09,28,00,18,12.30
2017,09,28,00,19,12.30
2017,09,28,00,20,12.30
2017,09,28,00,21,12.30
2017,09,28,00,22,12.20
2017,09,28,00,23,12.20
2017,09,28,00,24,12.20
2017,09,28,00,25,12.10
2017,09,28,00,26,12.10
2017,09,28,00,27,12.10
2017,09,28,00,28,12.10
2017,09,28,00,29,12.20
2017,09,28,00,30,12.20
2017,09,28,00,31,12.20
2017,09,28,00,32,12.20
2017,09,28,00,33,12.20
2017,09,28,00,34,12.20
2017,09,28,00,35,12.10
2017,09,28,00,36,12.10
2017,09,28,00,37,12.10
2017,09,28,00,38,12.10
2017,09,28,00,39,12.10
2017,09,28,00,40,12.10
2017,09,28,00,41,12.10
2017,09,28,00,42,12.10
2017,09,28,00,43,12.10
2017,09,28,00,44,12.10
2017,09,28,00,45,12.10
2017,09,28,00,46,12.10
2017,09,28,00,47,12.10
2017,09,28,00,48,12.10
2017,09,28,00,49,12.10
2017,09,28,00,50,12.10
2017,09,28,00,51,12.10
2017,09,28,00,52,12.00
2017,09,28,00,53,12.00
2017,09,28,00,54,12.00
2017,09,28,00,55,12.00
2017,09,28,00,56,11.90
2017,09,28,00,57,11.90
2017,09,28,00,58,11.90
2017,09,28,00,59,11.90
2017,09,28,01,00,11.90
2017,09,28,01,01,11.90
2017,09,28,01,02,12.00
2017,09,28,01,03,12.00
2017,09,28,01,04,12.00
2017,09,28,01,05,12.00
2017,09,28,01,06,12.10
2017,09,28,01,07,12.10
2017,09,28,01,08,12.20
2017,09,28,01,09,12.20
2017,09,28,01,10,12.20
2017,09,28,01,11,12.20
2017,09,28,01,12,12.20
2017,09,28,01,13,12.10
2017,09,28,01,14,12.10
2017,09,28,01,15,12.00
2017,09,28,01,16,12.00
2017,09,28,01,17,12.00
2017,09,28,01,18,11.90
2017,09,28,01,19,11.90
2017,09,28,01,20,11.90
2017,09,28,01,21,11.90
2017,09,28,01,22,11.80
2017,09,28,01,23,11.80
2017,09,28,01,24,11.80
2017,09,28,01,25,11.80
2017,09,28,01,26,11.80
2017,09,28,01,27,11.80
2017,09,28,01,28,11.70
2017,09,28,01,29,11.70
2017,09,28,01,30,11.70
2017,09,28,01,31,11.70
2017,09,28,01,32,11.70
2017,09,28,01,33,11.70
2017,09,28,01,34,11.70
2017,09,28,01,35,11.70
2017,09,28,01,36,11.70
2017,09,28,01,37,11.70
2017,09,28,01,38,11.70
2017,09,28,01,39,11.70
2017,09,28,01,40,11.70
2017,09,28,01,41,11.70
2017,09,28,01,42,11.70
2017,09,28,01,43,11.70
2017,09,28,01,44,11.70
2017,09,28,01,45,11.80
2017,09,28,01,46,11.80
2017,09,28,01,47,11.80
2017,09,28,01,48,11.80
2017,09,28,01,49,11.80
2017,09,28,01,50,11.80
2017,09,28,01,51,11.70
2017,09,28,01,52,11.70
2017,09,28,01,53,11.70
2017,09,28,01,54,11.60
2017,09,28,01,55,11.60
2017,09,28,01,56,11.60
2017,09,28,01,57,11.60
2017,09,28,01,58,11.60
2017,09,28,01,59,11.60
2017,09,28,02,00,11.60
2017,09,28,02,01,11.60
2017,09,28,02,02,11.60
2017,09,28,02,03,11.60
2017,09,28,02,04,11.60
2017,09,28,02,05,11.60
2017,09,28,02,06,11.50
2017,09,28,02,07,11.40
2017,09,28,02,08,11.40
2017,09,28,02,09,11.40
2017,09,28,02,10,11.40
2017,09,28,02,11,11.40
2017,09,28,02,12,11.40
2017,09,28,02,13,11.30
2017,09,28,02,14,11.30
2017,09,28,02,15,11.30
2017,09,28,02,16,11.30
2017,09,28,02,17,11.30
2017,09,28,02,18,11.30
2017,09,28,02,19,11.30
2017,09,28,02,20,11.30
2017,09,28,02,21,11.30
2017,09,28,02,22,11.40
2017,09,28,02,23,11.40
2017,09,28,02,24,11.40
2017,09,28,02,25,11.40
2017,09,28,02,26,11.40
2017,09,28,02,27,11.40
2017,09,28,02,28,11.30
2017,09,28,02,29,11.30
2017,09,28,02,30,11.30
2017,09,28,02,31,11.30
2017,09,28,02,32,11.30
2017,09,28,02,33,11.20
2017,09,28,02,34,11.20
2017,09,28,02,35,11.20
2017,09,28,02,36,11.20
2017,09,28,02,37,11.20
2017,09,28,02,38,11.20
2017,09,28,02,39,11.10
2017,09,28,02,40,11.10
2017,09,28,02,41,11.10
2017,09,28,02,42,11.10
2017,09,28,02,43,11.10
2017,09,28,02,44,11.10
2017,09,28,02,45,11.10
2017,09,28,02,46,11.10
2017,09,28,02,47,11.00
2017,09,28,02,48,10.90
2017,09,28,02,49,10.90
2017,09,28,02,50,10.90
2017,09,28,02,51,10.90
2017,09,28,02,52,10.90
2017,09,28,02,53,10.90
2017,09,28,02,54,10.90
2017,09,28,02,55,10.90
2017,09,28,02,56,10.90
2017,09,28,02,57,10.90
2017,09,28,02,58,10.90
2017,09,28,02,59,10.90
2017,09,28,03,00,10.90
2017,09,28,03,01,10.90
2017,09,28,03,02,10.90
2017,09,28,03,03,10.90
2017,09,28,03,04,10.90
2017,09,28,03,05,10.90
2017,09,28,03,06,10.90
2017,09,28,03,07,10.90
2017,09,28,03,08,10.90
2017,09,28,03,09,10.90
2017,09,28,03,10,10.90
2017,09,28,03,11,10.90
2017,09,28,03,12,10.90
2017,09,28,03,13,10.90
2017,09,28,03,14,10.90
2017,09,28,03,15,10.80
2017,09,28,03,16,10.80
2017,09,28,03,17,10.80
2017,09,28,03,18,10.80
2017,09,28,03,19,10.80
2017,09,28,03,20,10.80
2017,09,28,03,21,10.80
2017,09,28,03,22,10.80
2017,09,28,03,23,10.80
2017,09,28,03,24,10.80
2017,09,28,03,25,10.80
2017,09,28,03,26,10.80
2017,09,28,03,27,10.80
2017,09,28,03,28,10.80
2017,09,28,03,29,10.70
2017,09,28,03,30,10.70
2017,09,28,03,31,10.70
2017,09,28,03,32,10.70
2017,09,28,03,33,10.70
2017,09,28,03,34,10.60
2017,09,28,03,35,10.60
2017,09,28,03,36,10.60
2017,09,28,03,37,10.60
2017,09,28,03,38,10.70
2017,09,28,03,39,10.70
2017,09,28,03,40,10.70
2017,09,28,03,41,10.70
2017,09,28,03,42,10.70
2017,09,28,03,43,10.70
2017,09,28,03,44,10.70
2017,09,28,03,45,10.70
2017,09,28,03,46,10.70
2017,09,28,03,47,10.70
2017,09,28,03,48,10.70
2017,09,28,03,49,10.70
2017,09,28,03,50,10.70
2017,09,28,03,51,10.70
2017,09,28,03,52,10.70
2017,09,28,03,53,10.70
2017,09,28,03,54,10.70
2017,09,28,03,55,10.80
2017,09,28,03,56,10.80
2017,09,28,03,57,10.80
2017,09,28,03,58,10.80
2017,09,28,03,59,10.90
2017,09,28,04,00,10.90
2017,09,28,04,01,10.90
2017,09,28,04,02,10.90
2017,09,28,04,03,10.80
2017,09,28,04,04,10.80
2017,09,28,04,05,10.80
2017,09,28,04,06,10.80
2017,09,28,04,07,10.70
2017,09,28,04,08,10.70
2017,09,28,04,09,10.70
2017,09,28,04,10,10.70
2017,09,28,04,11,10.60
2017,09,28,04,12,10.60
2017,09,28,04,13,10.60
2017,09,28,04,14,10.60
2017,09,28,04,15,10.60
2017,09,28,04,16,10.60
2017,09,28,04,17,10.60
2017,09,28,04,18,10.60
2017,09,28,04,19,10.60
2017,09,28,04,20,10.60
2017,09,28,04,21,10.60
2017,09,28,04,22,10.60
2017,09,28,04,23,10.70
2017,09,28,04,24,10.70
2017,09,28,04,25,10.70
2017,09,28,04,26,10.70
2017,09,28,04,27,10.70
2017,09,28,04,28,10.70
2017,09,28,04,29,10.70
2017,09,28,04,30,10.70
2017,09,28,04,31,10.70
2017,09,28,04,32,10.70
2017,09,28,04,33,10.60
2017,09,28,04,34,10.60
2017,09,28,04,35,10.60
2017,09,28,04,36,10.60
2017,09,28,04,37,10.60
2017,09,28,04,38,10.60
2017,09,28,04,39,10.60
2017,09,28,04,40,10.60
2017,09,28,04,41,10.60
2017,09,28,04,42,10.60
2017,09,28,04,43,10.60
2017,09,28,04,44,10.60
2017,09,28,04,45,10.60
2017,09,28,04,46,10.50
2017,09,28,04,47,10.40
2017,09,28,04,48,10.40
2017,09,28,04,49,10.40
2017,09,28,04,50,10.40
2017,09,28,04,51,10.40
2017,09,28,04,52,10.40
2017,09,28,04,53,10.40
2017,09,28,04,54,10.40
2017,09,28,04,55,10.40
2017,09,28,04,56,10.40
2017,09,28,04,57,10.40
2017,09,28,04,58,10.40
2017,09,28,04,59,10.40
2017,09,28,05,00,10.40
2017,09,28,05,01,10.30
2017,09,28,05,02,10.30
2017,09,28,05,03,10.30
2017,09,28,05,04,10.30
2017,09,28,05,05,10.30
2017,09,28,05,06,10.30
2017,09,28,05,07,10.30
2017,09,28,05,08,10.40
2017,09,28,05,09,10.40
2017,09,28,05,10,10.40
2017,09,28,05,11,10.40
2017,09,28,05,12,10.40
2017,09,28,05,13,10.50
2017,09,28,05,14,10.60
2017,09,28,05,15,10.60
2017,09,28,05,16,10.60
2017,09,28,05,17,10.60
2017,09,28,05,18,10.60
2017,09,28,05,19,10.60
2017,09,28,05,20,10.60
2017,09,28,05,21,10.60
2017,09,28,05,22,10.50
2017,09,28,05,23,10.40
2017,09,28,05,24,10.40
2017,09,28,05,25,10.40
2017,09,28,05,26,10.40
2017,09,28,05,27,10.40
2017,09,28,05,28,10.40
2017,09,28,05,29,10.40
2017,09,28,05,30,10.40
2017,09,28,05,31,10.50
2017,09,28,05,32,10.60
2017,09,28,05,33,10.60
2017,09,28,05,34,10.60
2017,09,28,05,35,10.60
2017,09,28,05,36,10.60
2017,09,28,05,37,10.50
2017,09,28,05,38,10.40
2017,09,28,05,39,10.40
2017,09,28,05,40,10.40
2017,09,28,05,41,10.40
2017,09,28,05,42,10.40
2017,09,28,05,43,10.30
2017,09,28,05,44,10.30
2017,09,28,05,45,10.30
2017,09,28,05,46,10.30
2017,09,28,05,47,10.20
2017,09,28,05,48,10.20
2017,09,28,05,49,10.20
2017,09,28,05,50,10.20
2017,09,28,05,51,10.20
2017,09,28,05,52,10.20
2017,09,28,05,53,10.20
2017,09,28,05,54,10.30
2017,09,28,05,55,10.30
2017,09,28,05,56,10.30
2017,09,28,05,57,10.30
2017,09,28,05,58,10.30
2017,09,28,05,59,10.20
2017,09,28,06,00,10.20
2017,09,28,06,01,10.20
2017,09,28,06,02,10.20
2017,09,28,06,03,10.20
2017,09,28,06,04,10.20
2017,09,28,06,05,10.20
2017,09,28,06,06,10.20
2017,09,28,06,07,10.20
2017,09,28,06,08,10.20
2017,09,28,06,09,10.20
2017,09,28,06,10,10.20
2017,09,28,06,11,10.20
2017,09,28,06,12,10.20
2017,09,28,06,13,10.10
2017,09,28,06,14,10.10
2017,09,28,06,15,10.20
2017,09,28,06,16,10.20
2017,09,28,06,17,10.20
2017,09,28,06,18,10.30
2017,09,28,06,19,10.30
2017,09,28,06,20,10.30
2017,09,28,06,21,10.40
2017,09,28,06,22,10.40
2017,09,28,06,23,10.40
2017,09,28,06,24,10.40
2017,09,28,06,25,10.40
2017,09,28,06,26,10.40
2017,09,28,06,27,10.30
2017,09,28,06,28,10.30
2017,09,28,06,29,10.30
2017,09,28,06,30,10.20
2017,09,28,06,31,10.20
2017,09,28,06,32,10.20
2017,09,28,06,33,10.20
2017,09,28,06,34,10.20
2017,09,28,06,35,10.20
2017,09,28,06,36,10.20
2017,09,28,06,37,10.20
2017,09,28,06,38,10.20
2017,09,28,06,39,10.20
2017,09,28,06,40,10.20
2017,09,28,06,41,10.20
2017,09,28,06,42,10.20
2017,09,28,06,43,10.20
2017,09,28,06,44,10.20
2017,09,28,06,45,10.20
2017,09,28,06,46,10.20
2017,09,28,06,47,10.20
2017,09,28,06,48,10.20
2017,09,28,06,49,10.20
2017,09,28,06,50,10.10
2017,09,28,06,51,10.10
2017,09,28,06,52,10.10
2017,09,28,06,53,10.10
2017,09,28,06,54,10.20
2017,09,28,06,55,10.20
2017,09,28,06,56,10.20
2017,09,28,06,57,10.10
2017,09,28,06,58,10.10
2017,09,28,06,59,10.10
2017,09,28,07,00,10.10
2017,09,28,07,01,10.10
2017,09,28,07,02,10.10
2017,09,28,07,03,10.10
2017,09,28,07,04,10.10
2017,09,28,07,05,10.10
2017,09,28,07,06,10.10
2017,09,28,07,07,10.10
2017,09,28,07,08,10.10
2017,09,28,07,09,10.10
2017,09,28,07,10,10.10
2017,09,28,07,11,10.10
2017,09,28,07,12,10.10
2017,09,28,07,13,10.10
2017,09,28,07,14,10.10
2017,09,28,07,15,10.20
2017,09,28,07,16,10.30
2017,09,28,07,17,10.40
2017,09,28,07,18,10.40
2017,09,28,07,19,10.50
2017,09,28,07,20,10.60
2017,09,28,07,21,10.60
2017,09,28,07,22,10.60
2017,09,28,07,23,10.60
2017,09,28,07,24,10.60
2017,09,28,07,25,10.60
2017,09,28,07,26,10.60
2017,09,28,07,27,10.60
2017,09,28,07,28,10.60
2017,09,28,07,29,10.60
2017,09,28,07,30,10.60
2017,09,28,07,31,10.60
2017,09,28,07,32,10.60
2017,09,28,07,33,10.60
2017,09,28,07,34,10.60
2017,09,28,07,35,10.60
2017,09,28,07,36,10.60
2017,09,28,07,37,10.70
2017,09,28,07,38,10.70
2017,09,28,07,39,10.70
2017,09,28,07,40,10.70
2017,09,28,07,41,10.70
2017,09,28,07,42,10.70
2017,09,28,07,43,10.80
2017,09,28,07,44,10.80
2017,09,28,07,45,10.90
2017,09,28,07,46,10.90
2017,09,28,07,47,10.90
2017,09,28,07,48,10.90
2017,09,28,07,49,11.00
2017,09,28,07,50,11.10
2017,09,28,07,51,11.10
2017,09,28,07,52,11.10
2017,09,28,07,53,11.20
2017,09,28,07,54,11.30
2017,09,28,07,55,11.40
2017,09,28,07,56,11.40
2017,09,28,07,57,11.50
2017,09,28,07,58,11.60
2017,09,28,07,59,11.60
2017,09,28,08,00,11.60
2017,09,28,08,01,11.70
2017,09,28,08,02,11.80
2017,09,28,08,03,11.80
2017,09,28,08,04,11.90
2017,09,28,08,05,12.00
2017,09,28,08,06,12.00
2017,09,28,08,07,12.00
2017,09,28,08,08,12.10
2017,09,28,08,09,12.20
2017,09,28,08,10,12.30
2017,09,28,08,11,12.40
2017,09,28,08,12,12.50
2017,09,28,08,13,12.60
2017,09,28,08,14,12.60
2017,09,28,08,15,12.70
2017,09,28,08,16,12.80
2017,09,28,08,17,12.90
2017,09,28,08,18,13.00
2017,09,28,08,19,13.00
2017,09,28,08,20,13.10
2017,09,28,08,21,13.20
2017,09,28,08,22,13.30
2017,09,28,08,23,13.30
2017,09,28,08,24,13.40
2017,09,28,08,25,13.50
2017,09,28,08,26,13.50
2017,09,28,08,27,13.60
2017,09,28,08,28,13.70
2017,09,28,08,29,13.80
2017,09,28,08,30,13.90
2017,09,28,08,31,14.00
2017,09,28,08,32,14.10
2017,09,28,08,33,14.20
2017,09,28,08,34,14.30
2017,09,28,08,35,14.40
2017,09,28,08,36,14.50
2017,09,28,08,37,14.60
2017,09,28,08,38,14.70
2017,09,28,08,39,14.80
2017,09,28,08,40,14.90
2017,09,28,08,41,15.00
2017,09,28,08,42,15.10
2017,09,28,08,43,15.20
2017,09,28,08,44,15.40
2017,09,28,08,45,15.50
2017,09,28,08,46,15.60
2017,09,28,08,47,15.70
2017,09,28,08,48,15.70
2017,09,28,08,49,15.80
2017,09,28,08,50,15.80
2017,09,28,08,51,15.80
2017,09,28,08,52,16.00
2017,09,28,08,53,16.10
2017,09,28,08,54,16.20
2017,09,28,08,55,16.40
2017,09,28,08,56,16.50
2017,09,28,08,57,16.70
2017,09,28,08,58,16.70
2017,09,28,08,59,16.90
2017,09,28,09,00,17.00
2017,09,28,09,01,17.10
2017,09,28,09,02,17.30
2017,09,28,09,03,17.40
2017,09,28,09,04,17.50
2017,09,28,09,05,17.60
2017,09,28,09,06,17.60
2017,09,28,09,07,17.70
2017,09,28,09,08,17.80
2017,09,28,09,09,17.90
2017,09,28,09,10,18.00
2017,09,28,09,11,18.20
2017,09,28,09,12,18.30
2017,09,28,09,13,18.40
2017,09,28,09,14,18.50
2017,09,28,09,15,18.50
2017,09,28,09,16,18.60
2017,09,28,09,17,18.70
2017,09,28,09,18,18.70
2017,09,28,09,19,18.70
2017,09,28,09,20,18.80
2017,09,28,09,21,18.90
2017,09,28,09,22,18.90
2017,09,28,09,23,19.00
2017,09,28,09,24,19.10
2017,09,28,09,25,19.20
2017,09,28,09,26,19.30
2017,09,28,09,27,19.40
2017,09,28,09,28,19.50
2017,09,28,09,29,19.60
2017,09,28,09,30,19.60
2017,09,28,09,31,19.70
2017,09,28,09,32,19.80
2017,09,28,09,33,19.80
2017,09,28,09,34,19.90
2017,09,28,09,35,19.90
2017,09,28,09,36,19.90
2017,09,28,09,37,20.00
2017,09,28,09,38,20.10
2017,09,28,09,39,20.20
2017,09,28,09,40,20.20
2017,09,28,09,41,20.20
2017,09,28,09,42,20.30
2017,09,28,09,43,20.40
2017,09,28,09,44,20.40
2017,09,28,09,45,20.40
2017,09,28,09,46,20.40
2017,09,28,09,47,20.40
2017,09,28,09,48,20.40
2017,09,28,09,49,20.40
2017,09,28,09,50,20.40
2017,09,28,09,51,20.40
2017,09,28,09,52,20.40
2017,09,28,09,53,20.40
2017,09,28,09,54,20.40
2017,09,28,09,55,20.40
2017,09,28,09,56,20.50
2017,09,28,09,57,20.50
2017,09,28,09,58,20.50
2017,09,28,09,59,20.50
2017,09,28,10,00,20.50
2017,09,28,10,01,20.50
2017,09,28,10,02,20.50
2017,09,28,10,03,20.50
2017,09,28,10,04,20.60
2017,09,28,10,05,20.60
2017,09,28,10,06,20.70
2017,09,28,10,07,20.70
2017,09,28,10,08,20.70
2017,09,28,10,09,20.80
2017,09,28,10,10,20.80
2017,09,28,10,11,20.80
2017,09,28,10,12,20.80
2017,09,28,10,13,20.70
2017,09,28,10,14,20.70
2017,09,28,10,15,20.70
2017,09,28,10,16,20.70
2017,09,28,10,17,20.70
2017,09,28,10,18,20.70
2017,09,28,10,19,20.60
2017,09,28,10,20,20.70
2017,09,28,10,21,20.70
2017,09,28,10,22,20.70
2017,09,28,10,23,20.80
2017,09,28,10,24,20.80
2017,09,28,10,25,20.90
2017,09,28,10,26,20.90
2017,09,28,10,27,20.90
2017,09,28,10,28,21.00
2017,09,28,10,29,21.00
2017,09,28,10,30,21.00
2017,09,28,10,31,21.00
2017,09,28,10,32,21.00
2017,09,28,10,33,21.00
2017,09,28,10,34,21.00
2017,09,28,10,35,21.00
2017,09,28,10,36,21.00
2017,09,28,10,37,21.10
2017,09,28,10,38,21.20
2017,09,28,10,39,21.20
2017,09,28,10,40,21.20
2017,09,28,10,41,21.30
2017,09,28,10,42,21.30
2017,09,28,10,43,21.30
2017,09,28,10,44,21.30
2017,09,28,10,45,21.40
2017,09,28,10,46,21.40
2017,09,28,10,47,21.40
2017,09,28,10,48,21.40
2017,09,28,10,49,21.40
2017,09,28,10,50,21.40
2017,09,28,10,51,21.40
2017,09,28,10,52,21.50
2017,09,28,10,53,21.60
2017,09,28,10,54,21.60
2017,09,28,10,55,21.60
2017,09,28,10,56,21.60
2017,09,28,10,57,21.60
2017,09,28,10,58,21.60
2017,09,28,10,59,21.60
2017,09,28,11,00,21.60
2017,09,28,11,01,21.70
2017,09,28,11,02,21.70
2017,09,28,11,03,21.80
2017,09,28,11,04,21.80
2017,09,28,11,05,21.90
2017,09,28,11,06,22.00
2017,09,28,11,07,22.00
2017,09,28,11,08,22.00
2017,09,28,11,09,22.10
2017,09,28,11,10,22.10
2017,09,28,11,11,22.20
2017,09,28,11,12,22.20
2017,09,28,11,13,22.20
2017,09,28,11,14,22.30
2017,09,28,11,15,22.30
2017,09,28,11,16,22.30
2017,09,28,11,17,22.20
2017,09,28,11,18,22.20
2017,09,28,11,19,22.30
2017,09,28,11,20,22.30
2017,09,28,11,21,22.40
2017,09,28,11,22,22.50
2017,09,28,11,23,22.60
2017,09,28,11,24,22.70
2017,09,28,11,25,22.70
2017,09,28,11,26,22.60
2017,09,28,11,27,22.60
2017,09,28,11,28,22.60
2017,09,28,11,29,22.60
2017,09,28,11,30,22.60
2017,09,28,11,31,22.70
2017,09,28,11,32,22.70
2017,09,28,11,33,22.70
2017,09,28,11,34,22.70
2017,09,28,11,35,22.70
2017,09,28,11,36,22.70
2017,09,28,11,37,22.80
2017,09,28,11,38,22.90
2017,09,28,11,39,22.90
2017,09,28,11,40,22.90
2017,09,28,11,41,22.80
2017,09,28,11,42,22.70
2017,09,28,11,43,22.70
2017,09,28,11,44,22.70
2017,09,28,11,45,22.80
2017,09,28,11,46,22.80
2017,09,28,11,47,22.80
2017,09,28,11,48,22.80
2017,09,28,11,49,22.80
2017,09,28,11,50,22.80
2017,09,28,11,51,22.80
2017,09,28,11,52,22.80
2017,09,28,11,53,22.80
2017,09,28,11,54,22.80
2017,09,28,11,55,22.80
2017,09,28,11,56,22.80
2017,09,28,11,57,22.90
2017,09,28,11,58,22.90
2017,09,28,11,59,22.90
2017,09,28,12,00,22.90
2017,09,28,12,01,23.00
2017,09,28,12,02,23.10
2017,09,28,12,03,23.10
2017,09,28,12,04,23.10
2017,09,28,12,05,23.10
2017,09,28,12,06,23.10
2017,09,28,12,07,23.10
2017,09,28,12,08,23.10
2017,09,28,12,09,23.10
2017,09,28,12,10,23.20
2017,09,28,12,11,23.20
2017,09,28,12,12,23.30
2017,09,28,12,13,23.30
2017,09,28,12,14,23.30
2017,09,28,12,15,23.40
2017,09,28,12,16,23.50
2017,09,28,12,17,23.60
2017,09,28,12,18,23.70
2017,09,28,12,19,23.70
2017,09,28,12,20,23.70
2017,09,28,12,21,23.70
2017,09,28,12,22,23.70
2017,09,28,12,23,23.70
2017,09,28,12,24,23.70
2017,09,28,12,25,23.70
2017,09,28,12,26,23.70
2017,09,28,12,27,23.70
2017,09,28,12,28,23.80
2017,09,28,12,29,23.80
2017,09,28,12,30,23.90
2017,09,28,12,31,23.90
2017,09,28,12,32,23.90
2017,09,28,12,33,23.90
2017,09,28,12,34,23.90
2017,09,28,12,35,23.90
2017,09,28,12,36,23.90
2017,09,28,12,37,23.90
2017,09,28,12,38,24.00
2017,09,28,12,39,24.10
2017,09,28,12,40,24.10
2017,09,28,12,41,24.10
2017,09,28,12,42,24.10
2017,09,28,12,43,24.20
2017,09,28,12,44,24.20
2017,09,28,12,45,24.20
2017,09,28,12,46,24.20
2017,09,28,12,47,24.20
2017,09,28,12,48,24.20
2017,09,28,12,49,24.30
2017,09,28,12,50,24.30
2017,09,28,12,51,24.30
2017,09,28,12,52,24.30
2017,09,28,12,53,24.30
2017,09,28,12,54,24.30
2017,09,28,12,55,24.30
2017,09,28,12,56,24.30
2017,09,28,12,57,24.30
2017,09,28,12,58,24.30
2017,09,28,12,59,24.30
2017,09,28,13,00,24.40
2017,09,28,13,01,24.40
2017,09,28,13,02,24.40
2017,09,28,13,03,24.40
2017,09,28,13,04,24.30
2017,09,28,13,05,24.30
2017,09,28,13,06,24.30
2017,09,28,13,07,24.30
2017,09,28,13,08,24.30
2017,09,28,13,09,24.30
2017,09,28,13,10,24.40
2017,09,28,13,11,24.40
2017,09,28,13,12,24.40
2017,09,28,13,13,24.40
2017,09,28,13,14,24.40
2017,09,28,13,15,24.40
2017,09,28,13,16,24.40
2017,09,28,13,17,24.40
2017,09,28,13,18,24.50
2017,09,28,13,19,24.50
2017,09,28,13,20,24.60
2017,09,28,13,21,24.60
2017,09,28,13,22,24.60
2017,09,28,13,23,24.60
2017,09,28,13,24,24.60
2017,09,28,13,25,24.60
2017,09,28,13,26,24.50
2017,09,28,13,27,24.50
2017,09,28,13,28,24.50
2017,09,28,13,29,24.50
2017,09,28,13,30,24.40
2017,09,28,13,31,24.40
2017,09,28,13,32,24.40
2017,09,28,13,33,24.50
2017,09,28,13,34,24.50
2017,09,28,13,35,24.50
2017,09,28,13,36,24.50
2017,09,28,13,37,24.60
2017,09,28,13,38,24.60
2017,09,28,13,39,24.70
2017,09,28,13,40,24.70
2017,09,28,13,41,24.70
2017,09,28,13,42,24.80
2017,09,28,13,43,24.90
2017,09,28,13,44,24.90
2017,09,28,13,45,24.90
2017,09,28,13,46,24.90
2017,09,28,13,47,24.90
2017,09,28,13,48,25.00
2017,09,28,13,49,25.00
2017,09,28,13,50,25.00
2017,09,28,13,51,25.10
2017,09,28,13,52,25.20
2017,09,28,13,53,25.30
2017,09,28,13,54,25.30
2017,09,28,13,55,25.30
2017,09,28,13,56,25.30
2017,09,28,13,57,25.20
2017,09,28,13,58,25.30
2017,09,28,13,59,25.30
2017,09,28,14,00,25.30
2017,09,28,14,01,25.40
2017,09,28,14,02,25.40
2017,09,28,14,03,25.40
2017,09,28,14,04,25.40
2017,09,28,14,05,25.50
2017,09,28,14,06,25.50
2017,09,28,14,07,25.60
2017,09,28,14,08,25.60
2017,09,28,14,09,25.60
2017,09,28,14,10,25.60
2017,09,28,14,11,25.60
2017,09,28,14,12,25.50
2017,09,28,14,13,25.50
2017,09,28,14,14,25.50
2017,09,28,14,15,25.50
2017,09,28,14,16,25.50
2017,09,28,14,17,25.50
2017,09,28,14,18,25.60
2017,09,28,14,19,25.70
2017,09,28,14,20,25.80
2017,09,28,14,21,25.80
2017,09,28,14,22,25.80
2017,09,28,14,23,25.80
2017,09,28,14,24,25.80
2017,09,28,14,25,25.90
2017,09,28,14,26,25.90
2017,09,28,14,27,25.90
2017,09,28,14,28,25.90
2017,09,28,14,29,25.90
2017,09,28,14,30,25.90
2017,09,28,14,31,25.90
2017,09,28,14,32,25.90
2017,09,28,14,33,26.00
2017,09,28,14,34,26.00
2017,09,28,14,35,26.00
2017,09,28,14,36,26.00
2017,09,28,14,37,26.00
2017,09,28,14,38,26.00
2017,09,28,14,39,26.00
2017,09,28,14,40,26.00
2017,09,28,14,41,26.00
2017,09,28,14,42,26.00
2017,09,28,14,43,26.10
2017,09,28,14,44,26.10
2017,09,28,14,45,26.10
2017,09,28,14,46,26.10
2017,09,28,14,47,26.10
2017,09,28,14,48,26.10
2017,09,28,14,49,26.10
2017,09,28,14,50,26.00
2017,09,28,14,51,26.00
2017,09,28,14,52,26.00
2017,09,28,14,53,26.00
2017,09,28,14,54,26.10
2017,09,28,14,55,26.10
2017,09,28,14,56,26.20
2017,09,28,14,57,26.20
2017,09,28,14,58,26.20
2017,09,28,14,59,26.20
2017,09,28,15,00,26.10
2017,09,28,15,01,26.10
2017,09,28,15,02,26.10
2017,09,28,15,03,26.10
2017,09,28,15,04,26.20
2017,09,28,15,05,26.20
2017,09,28,15,06,26.20
2017,09,28,15,07,26.30
2017,09,28,15,08,26.30
2017,09,28,15,09,26.30
2017,09,28,15,10,26.30
2017,09,28,15,11,26.30
2017,09,28,15,12,26.30
2017,09,28,15,13,26.30
2017,09,28,15,14,26.20
2017,09,28,15,15,26.20
2017,09,28,15,16,26.20
2017,09,28,15,17,26.20
2017,09,28,15,18,26.20
2017,09,28,15,19,26.30
2017,09,28,15,20,26.40
2017,09,28,15,21,26.40
2017,09,28,15,22,26.40
2017,09,28,15,23,26.40
2017,09,28,15,24,26.30
2017,09,28,15,25,26.20
2017,09,28,15,26,26.10
2017,09,28,15,27,26.10
2017,09,28,15,28,26.00
2017,09,28,15,29,25.80
2017,09,28,15,30,25.40
2017,09,28,15,31,25.20
2017,09,28,15,32,25.00
2017,09,28,15,33,24.80
2017,09,28,15,34,24.60
2017,09,28,15,35,24.40
2017,09,28,15,36,24.10
2017,09,28,15,37,24.00
2017,09,28,15,38,23.80
2017,09,28,15,39,23.70
2017,09,28,15,40,23.60
2017,09,28,15,41,23.40
2017,09,28,15,42,23.40
2017,09,28,15,43,23.30
2017,09,28,15,44,23.20
2017,09,28,15,45,23.10
2017,09,28,15,46,22.90
2017,09,28,15,47,22.80
2017,09,28,15,48,22.80
2017,09,28,15,49,22.70
2017,09,28,15,50,22.70
2017,09,28,15,51,22.70
2017,09,28,15,52,22.80
2017,09,28,15,53,22.80
2017,09,28,15,54,22.90
2017,09,28,15,55,22.90
2017,09,28,15,56,22.90
2017,09,28,15,57,22.90
2017,09,28,15,58,23.00
2017,09,28,15,59,23.10
2017,09,28,16,00,23.10
2017,09,28,16,01,23.10
2017,09,28,16,02,23.10
2017,09,28,16,03,23.00
2017,09,28,16,04,22.90
2017,09,28,16,05,22.70
2017,09,28,16,06,22.50
2017,09,28,16,07,22.40
2017,09,28,16,08,22.40
2017,09,28,16,09,22.30
2017,09,28,16,10,22.20
2017,09,28,16,11,22.20
2017,09,28,16,12,22.10
2017,09,28,16,13,22.10
2017,09,28,16,14,22.00
2017,09,28,16,15,21.90
2017,09,28,16,16,21.70
2017,09,28,16,17,21.60
2017,09,28,16,18,21.60
2017,09,28,16,19,21.50
2017,09,28,16,20,21.40
2017,09,28,16,21,21.40
2017,09,28,16,22,21.30
2017,09,28,16,23,21.30
2017,09,28,16,24,21.30
2017,09,28,16,25,21.30
2017,09,28,16,26,21.30
2017,09,28,16,27,21.30
2017,09,28,16,28,21.20
2017,09,28,16,29,21.20
2017,09,28,16,30,21.10
2017,09,28,16,31,21.10
2017,09,28,16,32,21.10
2017,09,28,16,33,21.00
2017,09,28,16,34,21.00
2017,09,28,16,35,21.00
2017,09,28,16,36,21.00
2017,09,28,16,37,21.00
2017,09,28,16,38,21.00
2017,09,28,16,39,21.00
2017,09,28,16,40,21.00
2017,09,28,16,41,21.00
2017,09,28,16,42,21.00
2017,09,28,16,43,21.00
2017,09,28,16,44,21.00
2017,09,28,16,45,21.00
2017,09,28,16,46,21.00
2017,09,28,16,47,21.00
2017,09,28,16,48,21.00
2017,09,28,16,49,21.00
2017,09,28,16,50,21.00
2017,09,28,16,51,21.00
2017,09,28,16,52,21.00
2017,09,28,16,53,21.00
2017,09,28,16,54,21.00
2017,09,28,16,55,21.00
2017,09,28,16,56,21.00
2017,09,28,16,57,21.00
2017,09,28,16,58,21.00
2017,09,28,16,59,21.00
2017,09,28,17,00,21.00
2017,09,28,17,01,21.10
2017,09,28,17,02,21.10
2017,09,28,17,03,21.10
2017,09,28,17,04,21.20
2017,09,28,17,05,21.20
2017,09,28,17,06,21.30
2017,09,28,17,07,21.30
2017,09,28,17,08,21.30
2017,09,28,17,09,21.30
2017,09,28,17,10,21.30
2017,09,28,17,11,21.30
2017,09,28,17,12,21.30
2017,09,28,17,13,21.30
2017,09,28,17,14,21.40
2017,09,28,17,15,21.40
2017,09,28,17,16,21.40
2017,09,28,17,17,21.40
2017,09,28,17,18,21.40
2017,09,28,17,19,21.40